Home > Weather > Seelze > Past weeks

Flag for Germany Past Weather in Seelze, Lower Saxony, Germany — Yesterday and Last 2 Weeks

Now
77 °F

Broken clouds.


Feels Like: 79 °F
Forecast: 62 / 75 °F
Wind: 7 mph from Northwest

Location: Hannover

Current Time: Jul 25, 2016 at 12:07:49 PM

Latest Report: Jul 25, 2016 at 11:20 AM


Visibility: N/A

Pressure: 30.07 "Hg

Humidity: 65%

Dew Point: 64 °F

Location of SeelzeLocation

Past Weather in Seelze — Graph

°F

Seelze Temperature Yesterday

Maximum temperature yesterday: 84 °F (at 3:50 PM)
Minimum temperature yesterday: 63 °F (at 5:50 AM)
Average temperature yesterday: 74 °F

High & Low Weather Summary for the Past Weeks

 TemperatureHumidityPressure
High88 °F (Jul 20, 3:20 PM)100% (Jul 13, 2:20 AM)30.24 "Hg (Jul 13, 2:20 AM)
Low52 °F (Jul 16, 2:20 AM)31% (Jul 20, 5:50 PM)29.71 "Hg (Jul 10, 11:50 PM)
Average68 °F73%30.02 "Hg
* Reported Jul 10 11:20 AM — Jul 25 11:20 AM, Seelze, Weather by CustomWeather, © 2016

Note: Actual official high and low records may vary slightly from our data, if they occured in-between our weather recording intervals... More about our weather records

Advertising

Seelze Weather History for the Previous 24 Hours

Scroll right to see more
 ConditionsComfort  
Time TempWeatherWind HumidityBarometerVisibility
11:20 AM
Mon, Jul 25
77 °FBroken clouds.7 mph65%30.07 "HgN/A
10:20 AM75 °FPassing clouds.7 mph74%30.04 "HgN/A
9:50 AM73 °FPassing clouds.6 mph83%30.07 "HgN/A
9:20 AM73 °FPassing clouds.5 mph78%30.07 "HgN/A
8:50 AM72 °FPassing clouds.5 mph83%30.07 "HgN/A
8:20 AM70 °FPassing clouds.3 mph88%30.04 "HgN/A
7:50 AM68 °FSunny.3 mph94%30.04 "Hg10 mi
7:20 AM68 °FSunny.1 mph94%30.04 "Hg10 mi
6:50 AM66 °FSunny.2 mph94%30.04 "Hg10 mi
6:20 AM66 °FClear.5 mph94%30.04 "Hg10 mi
5:50 AM66 °FClear.3 mph94%30.04 "Hg10 mi
5:20 AM66 °FClear.2 mph94%30.04 "Hg10 mi
4:50 AM66 °FClear.1 mph94%30.04 "Hg10 mi
4:20 AM66 °FClear.2 mph94%30.04 "Hg10 mi
3:50 AM68 °FClear.2 mph88%30.04 "Hg10 mi
3:20 AM66 °FClear.2 mph94%30.04 "Hg10 mi
2:50 AM68 °FClear.2 mph88%30.04 "Hg10 mi
2:20 AM68 °FPassing clouds.3 mph88%30.04 "HgN/A
1:50 AM66 °FClear.6 mph94%30.07 "Hg10 mi
1:20 AM68 °FClear.6 mph88%30.07 "Hg10 mi
12:50 AM68 °FClear.2 mph83%30.07 "Hg10 mi
12:20 AM70 °FClear.7 mph83%30.07 "Hg10 mi
11:50 PM
Sun, Jul 24
68 °FClear.6 mph83%30.07 "Hg10 mi
11:20 PM72 °FClear.6 mph78%30.07 "Hg10 mi
10:50 PM70 °FPassing clouds.3 mph83%30.07 "HgN/A
10:20 PM72 °FSunny.3 mph73%30.07 "Hg10 mi
9:50 PM73 °FPassing clouds.6 mph69%30.07 "HgN/A
9:20 PM75 °FSunny.6 mph65%30.04 "Hg10 mi
8:50 PM77 °FSunny.5 mph61%30.04 "Hg10 mi
8:20 PM79 °FPassing clouds.5 mph58%30.04 "HgN/A
7:50 PM81 °FSunny.6 mph54%30.04 "Hg10 mi
7:20 PM84 °FPartly sunny.2 mph37%30.04 "HgN/A
6:50 PM82 °FPartly sunny.2 mph35%30.04 "HgN/A
6:20 PM84 °FPartly sunny.2 mph35%30.04 "HgN/A
5:50 PM82 °FScattered clouds.5 mph37%30.04 "HgN/A
5:20 PM84 °FScattered clouds.3 mph35%30.04 "HgN/A
4:50 PM84 °FScattered clouds.3 mph37%30.04 "HgN/A
4:20 PM82 °FScattered clouds.7 mph40%30.07 "HgN/A
3:50 PM84 °FSunny.5 mph35%30.07 "Hg10 mi
3:20 PM82 °FPassing clouds.6 mph37%30.07 "HgN/A
2:50 PM82 °FSunny.3 mph42%30.07 "Hg10 mi
2:20 PM82 °FPassing clouds.7 mph40%30.07 "HgN/A
1:50 PM82 °FSunny.5 mph45%30.07 "Hg10 mi
1:20 PM81 °FSunny.3 mph45%30.07 "Hg10 mi
12:50 PM81 °FSunny.2 mph45%30.07 "Hg10 mi
12:20 PM81 °FSunny.3 mph48%30.09 "Hg10 mi
Weather by CustomWeather, © 2016

See weather overviewHow to use our weather pages